Home   Weather   Spain   Las Palmas   Past weeks
Flag for Spain

Past Weather in Las Palmas, Las Palmas, Spain — Yesterday and Last 2 Weeks

Currently: 70 °F. Passing clouds. (Weather station: Las Palmas De Gran Canaria / Gando, Spain). See more current weather

Past Weather in Las Palmas — Graph

°F

Las Palmas Temperature Yesterday

Maximum temperature yesterday: 75 °F (at 12:30 pm)
Minimum temperature yesterday: 66 °F (at 5:30 am)
Average temperature yesterday: 71 °F

High & Low Weather Summary for the Past Weeks

 TemperatureHumidityPressure
High88 °F (May 10, 9:30 am)94% (May 11, 5:30 am)30.18 "Hg (May 11, 5:30 am)
Low63 °F (May 4, 7:30 am)31% (May 10, 9:30 am)29.92 "Hg (May 8, 4:00 pm)
Average70 °F69%30.05 "Hg
* Reported May 3 2:00 am — May 18 1:00 am, Las Palmas. Weather by CustomWeather, © 2022

Note: Actual official high and low records may vary slightly from our data, if they occured in-between our weather recording intervals... More about our weather records

Las Palmas Weather History for the Previous 24 Hours

Scroll right to see more
 ConditionsComfort  
Time TempWeatherWind HumidityBarometerVisibility
1:00 am
Wed, May 18
70 °FPassing clouds.21 mph73%30.09 "HgN/A
12:30 am70 °FPassing clouds.20 mph73%30.12 "HgN/A
12:00 am70 °FPassing clouds.18 mph73%30.12 "HgN/A
11:30 pm
Tue, May 17
70 °FPassing clouds.20 mph69%30.12 "HgN/A
11:00 pm70 °FPassing clouds.21 mph69%30.09 "HgN/A
10:30 pm70 °FPassing clouds.23 mph69%30.09 "HgN/A
10:00 pm70 °FPassing clouds.21 mph69%30.09 "HgN/A
9:00 pm70 °FPassing clouds.21 mph73%30.07 "HgN/A
8:30 pm72 °FPassing clouds.18 mph69%30.07 "HgN/A
8:00 pm72 °FPassing clouds.21 mph69%30.07 "HgN/A
7:30 pm73 °FPassing clouds.22 mph69%30.07 "HgN/A
7:00 pm73 °FPassing clouds.24 mph69%30.07 "HgN/A
6:30 pm73 °FPassing clouds.26 mph69%30.07 "HgN/A
6:00 pm73 °FPassing clouds.25 mph69%30.09 "HgN/A
5:30 pm73 °FPassing clouds.25 mph69%30.09 "HgN/A
5:00 pm73 °FPassing clouds.26 mph65%30.09 "HgN/A
4:30 pm75 °FPassing clouds.26 mph61%30.09 "HgN/A
4:00 pm75 °FPassing clouds.26 mph61%30.09 "HgN/A
3:30 pm75 °FPassing clouds.28 mph61%30.12 "HgN/A
3:00 pm75 °FPassing clouds.29 mph65%30.12 "HgN/A
2:30 pm75 °FPassing clouds.28 mph57%30.12 "HgN/A
2:00 pm75 °FPassing clouds.28 mph61%30.15 "HgN/A
1:30 pm75 °FPassing clouds.26 mph61%30.15 "HgN/A
1:00 pm75 °FPassing clouds.25 mph61%30.15 "HgN/A
12:30 pm75 °FPassing clouds.25 mph61%30.15 "HgN/A
12:00 pm73 °FPassing clouds.25 mph65%30.15 "HgN/A
11:30 am73 °FPassing clouds.24 mph65%30.15 "HgN/A
11:00 am73 °FPassing clouds.24 mph61%30.15 "HgN/A
10:30 am73 °FPassing clouds.23 mph65%30.15 "HgN/A
10:00 am72 °FPassing clouds.22 mph61%30.15 "HgN/A
9:30 am72 °FScattered clouds.18 mph65%30.15 "HgN/A
9:00 am70 °FPartly sunny.15 mph73%30.15 "HgN/A
8:30 am70 °FPassing clouds.14 mph69%30.15 "HgN/A
8:00 am68 °FScattered clouds.13 mph69%30.12 "HgN/A
7:30 am66 °FScattered clouds.12 mph73%30.12 "HgN/A
7:00 am68 °FPassing clouds.12 mph73%30.12 "HgN/A
6:30 am66 °FPassing clouds.12 mph78%30.12 "HgN/A
6:00 am66 °FPassing clouds.13 mph78%30.12 "HgN/A
5:30 am66 °FPassing clouds.13 mph78%30.12 "HgN/A
5:00 am68 °FPassing clouds.12 mph73%30.12 "HgN/A
4:30 am68 °FPassing clouds.10 mph73%30.12 "HgN/A
4:00 am68 °FPassing clouds.12 mph73%30.15 "HgN/A
3:30 am68 °FPassing clouds.14 mph73%30.15 "HgN/A
3:00 am68 °FPassing clouds.14 mph73%30.15 "HgN/A
2:30 am68 °FPassing clouds.10 mph73%30.15 "HgN/A
2:00 am68 °FPassing clouds.8 mph73%30.15 "HgN/A
Weather by CustomWeather, © 2022

See weather overview